Flag for Norway Weather past 2 weeks in Fevik, Norway

Now
55 °F

Refreshingly cool.


Feels Like: 52 °F
Forecast: 47 / 56 °F
Wind: 12 mph from Northeast

Location: Torungen Fyr

Current Time: Sep 22, 2014 at 1:01:33 PM

Latest Report: Sep 22, 2014 at 12:00 PM


Visibility: N/A

Pressure: 30.01 "Hg

Humidity: 47%

Dew point: 35 °F

Location of FevikLocation

Historic Weather in Fevik — Graph

°F

Fevik temperature yesterday

Maximum temperature yesterday: 64 °F (at 3:00 PM)
Minimum temperature yesterday: 54 °F (at 8:00 AM)
Average temperature yesterday: 59 °F

Past Weeks' High & Low Weather Summary

 TemperatureHumidityPressure
High64 °F (Sep 21, 3:00 PM)97% (Sep 7, 11:00 AM)30.45 "Hg (Sep 7, 11:00 AM)
Low50 °F (Sep 22, 5:00 AM)46% (Sep 21, 2:00 PM)29.79 "Hg (Sep 21, 6:00 PM)
Average58 °F82%30.14 "Hg
* Reported Sep 7 11:00 AM — Sep 22 11:00 AM, Fevik, Weather by CustomWeather, © 2014

Note: Actual official high and low records may vary slightly from our data, if they occured in-between our weather recording intervals... More about our weather records

Advertising

Fevik weather history for previous 24 hours

 ConditionsComfort  
Time TempWeatherWind HumidityBarometerVisibility
11:00 AM
Sep 22
54 °FCool.13 mph48%30.01 "HgN/A
10:00 AM53 °FCool.12 mph49%30.01 "HgN/A
9:00 AM52 °FCool.13 mph50%29.98 "HgN/A
8:00 AM51 °FCool.12 mph50%29.96 "HgN/A
7:00 AM52 °FCool.12 mph50%29.93 "HgN/A
6:00 AM51 °FCool.9 mph51%29.92 "HgN/A
5:00 AM50 °FCool.6 mph54%29.91 "HgN/A
4:00 AM51 °FCool.8 mph53%29.90 "HgN/A
3:00 AM53 °FCool.9 mph51%29.90 "HgN/A
2:00 AM54 °FCool.9 mph53%29.89 "HgN/A
1:00 AM54 °FCool.10 mph53%29.88 "HgN/A
12:00 AM53 °FCool.8 mph74%29.88 "HgN/A
11:00 PM
Sep 21
56 °FCool.10 mph70%29.85 "HgN/A
10:00 PM58 °FCool.8 mph71%29.85 "HgN/A
9:00 PM59 °FCool.7 mph74%29.83 "HgN/A
8:00 PM59 °FCool.5 mph70%29.81 "HgN/A
7:00 PM62 °FCool.3 mph66%29.80 "HgN/A
6:00 PM62 °FCool.7 mph65%29.79 "HgN/A
5:00 PM63 °FMild.6 mph66%29.80 "HgN/A
4:00 PM63 °FMild.5 mph60%29.81 "HgN/A
3:00 PM64 °FMild.6 mph48%29.82 "HgN/A
2:00 PM64 °FMild.9 mph46%29.83 "HgN/A
1:00 PM63 °FMild.6 mph51%29.83 "HgN/A
Weather by CustomWeather, © 2014

See weather overviewHow to use our weather pages